Sigfox identifier Datetime Temperature Humidity SNR
003A60E0 2019-04-23 14:59:56 16.9 29 25.1
003A60E0 2019-04-23 14:24:46 16.7 29 25.1
003A60E0 2019-04-23 13:49:35 16.5 29 25
003A60E0 2019-04-23 13:14:24 16.5 29 25.1
003A60E0 2019-04-23 12:39:13 16.3 29 25.2
003A60E0 2019-04-23 12:04:04 16.3 28 25.2
003A60E0 2019-04-23 11:28:54 16 28 25.2
003A60E0 2019-04-23 10:53:44 16 28 25.3
003A60E0 2019-04-23 10:18:34 15.9 28 25.4
003A60E0 2019-04-23 09:43:25 15.9 28 25.3
003A60E0 2019-04-23 09:08:16 15.8 28 25.3
003A60E0 2019-04-23 08:33:05 15.8 28 25.3
003A60E0 2019-04-23 07:57:54 15.8 28 25.4
003A60E0 2019-04-23 07:22:44 15.8 28 25.5
003A60E0 2019-04-23 06:47:34 15.8 28 25.5
003A60E0 2019-04-23 06:12:24 15.8 28 25.5
003A60E0 2019-04-23 05:37:14 15.8 28 25.6
003A60E0 2019-04-23 05:02:05 15.7 28 25.6
003A60E0 2019-04-23 04:26:56 15.8 28 25.6
003A60E0 2019-04-23 03:51:47 15.8 28 25.5
003A60E0 2019-04-23 03:16:38 15.6 28 25.6
003A60E0 2019-04-23 02:41:28 15.6 28 25.6
003A60E0 2019-04-23 02:06:17 15.7 28 25.6
003A60E0 2019-04-23 01:31:07 15.7 28 25.5
003A60E0 2019-04-23 00:55:57 15.8 28 25.5
003A60E0 2019-04-23 00:20:48 15.8 28 25.4
003A60E0 2019-04-22 23:45:39 15.8 28 25.2
003A60E0 2019-04-22 23:10:28 15.8 28 25.1
003A60E0 2019-04-22 22:35:18 15.8 28 25.2
003A60E0 2019-04-22 22:00:07 15.8 28 25.2
003A60E0 2019-04-22 21:24:57 16 28 25.1
003A60E0 2019-04-22 20:49:47 16 28 25.1
003A60E0 2019-04-22 20:14:38 16 28 25
003A60E0 2019-04-22 19:39:29 16.1 28 25
003A60E0 2019-04-22 19:04:21 16.3 28 25
003A60E0 2019-04-22 18:29:12 16.3 28 25
003A60E0 2019-04-22 17:54:03 16.3 28 25
003A60E0 2019-04-22 17:18:55 16.3 28 24.7
003A60E0 2019-04-22 16:43:46 16.3 28 24.7
003A60E0 2019-04-22 16:08:39 16.3 28 24.7
003A60E0 2019-04-22 15:33:30 16.2 28 24.7
003A60E0 2019-04-22 14:58:21 16.1 28 24.6
003A60E0 2019-04-22 14:23:12 16 28 24.7
003A60E0 2019-04-22 13:48:04 16 28 24.7
003A60E0 2019-04-22 13:12:55 16 27 24.7
003A60E0 2019-04-22 12:37:46 16 27 24.7
003A60E0 2019-04-22 12:02:37 16 27 24.7
003A60E0 2019-04-22 11:27:28 16 27 24.7
003A60E0 2019-04-22 10:52:19 16 27 24.8
003A60E0 2019-04-22 10:17:10 16 28 24.7
003A60E0 2019-04-22 09:42:03 15.8 27 24.9
003A60E0 2019-04-22 09:06:54 15.8 27 24.9
003A60E0 2019-04-22 08:31:46 15.8 27 24.8
003A60E0 2019-04-22 07:56:39 15.8 27 24.8
003A60E0 2019-04-22 07:21:32 15.8 27 24.9
003A60E0 2019-04-22 06:46:24 15.8 27 25
003A60E0 2019-04-22 06:11:16 15.9 27 25
003A60E0 2019-04-22 05:36:09 16 27 25.1
003A60E0 2019-04-22 05:01:01 15.8 27 25
003A60E0 2019-04-22 04:25:53 15.8 27 24.9
003A60E0 2019-04-22 03:50:45 15.9 27 25
003A60E0 2019-04-22 03:15:36 15.8 27 25.1
003A60E0 2019-04-22 02:40:28 15.9 27 25
003A60E0 2019-04-22 02:05:18 15.8 27 25
003A60E0 2019-04-22 01:30:10 15.8 27 25.1
003A60E0 2019-04-22 00:55:01 15.6 27 25.1
003A60E0 2019-04-22 00:19:51 15.7 27 24.9
003A60E0 2019-04-21 23:44:44 15.7 27 24.8
003A60E0 2019-04-21 23:09:33 15.6 27 24.7
003A60E0 2019-04-21 22:34:23 15.6 27 24.6
003A60E0 2019-04-21 21:59:10 15.6 27 24.6
003A60E0 2019-04-21 21:23:58 15.6 27 24.7
003A60E0 2019-04-21 20:48:47 15.6 27 24.7
003A60E0 2019-04-21 20:13:34 15.6 27 24.8
003A60E0 2019-04-21 19:38:22 15.6 27 24.9
003A60E0 2019-04-21 19:03:09 15.6 27 24.9
003A60E0 2019-04-21 18:27:57 15.6 27 24.9
003A60E0 2019-04-21 17:52:44 15.6 27 25
003A60E0 2019-04-21 17:17:32 15.6 27 25
003A60E0 2019-04-21 16:42:20 15.6 27 25
003A60E0 2019-04-21 16:07:08 15.6 27 24.8
003A60E0 2019-04-21 15:31:55 15.6 27 24.9
003A60E0 2019-04-21 14:56:43 15.6 26 24.9
003A60E0 2019-04-21 14:21:33 15.6 26 25
003A60E0 2019-04-21 13:46:22 15.6 26 25.1
003A60E0 2019-04-21 13:11:10 15.6 26 25.1
003A60E0 2019-04-21 12:35:59 15.6 26 25
003A60E0 2019-04-21 12:00:48 15.5 26 25.1
003A60E0 2019-04-21 11:25:38 15.5 26 25.1
003A60E0 2019-04-21 10:50:28 15.6 26 25.1
003A60E0 2019-04-21 10:15:17 15.6 26 25.1
003A60E0 2019-04-21 09:40:07 15.6 26 25.3
003A60E0 2019-04-21 09:04:57 15.7 26 25.4
003A60E0 2019-04-21 08:29:49 15.8 26 25.4
003A60E0 2019-04-21 07:54:39 16 26 25.6
003A60E0 2019-04-21 07:19:29 15.8 26 25.6
003A60E0 2019-04-21 06:44:19 15.9 26 25.5
003A60E0 2019-04-21 06:09:07 15.9 26 25.5
003A60E0 2019-04-21 05:33:55 15.8 26 25.4
003A60E0 2019-04-21 04:58:45 15.9 26 25.4
003A60E0 2019-04-21 04:23:36 15.8 26 25.3
003A60E0 2019-04-21 03:48:26 15.8 26 25.3
003A60E0 2019-04-21 03:13:17 15.8 26 25.3
003A60E0 2019-04-21 02:38:07 15.8 26 25.2
003A60E0 2019-04-21 02:02:56 15.7 26 25.4
003A60E0 2019-04-21 01:27:46 15.8 26 25.4
003A60E0 2019-04-21 00:52:36 15.6 26 25.4
003A60E0 2019-04-21 00:17:27 15.8 26 25.4
003A60E0 2019-04-20 23:42:13 15.8 26 25.3
003A60E0 2019-04-20 23:07:02 15.6 26 25.3
003A60E0 2019-04-20 22:31:52 15.6 26 25.2
003A60E0 2019-04-20 21:56:41 15.6 26 25.2
003A60E0 2019-04-20 21:21:30 15.6 26 25.2
003A60E0 2019-04-20 20:46:20 15.6 26 25.2
003A60E0 2019-04-20 20:11:09 15.6 26 25.2
003A60E0 2019-04-20 19:35:58 15.6 25 25.2
003A60E0 2019-04-20 19:00:46 15.6 25 25.2
003A60E0 2019-04-20 18:25:34 15.7 25 25.2
003A60E0 2019-04-20 17:50:23 15.8 25 25.2
003A60E0 2019-04-20 17:15:11 15.6 25 25.2
003A60E0 2019-04-20 16:40:00 15.6 25 25.3
003A60E0 2019-04-20 16:04:49 15.6 25 25.2
003A60E0 2019-04-20 15:29:38 15.7 25 25.2
003A60E0 2019-04-20 14:54:27 15.6 25 25.3
003A60E0 2019-04-20 14:19:17 15.6 25 25.3
003A60E0 2019-04-20 13:44:07 15.6 25 25.5
003A60E0 2019-04-20 13:08:56 15.6 25 25.5
003A60E0 2019-04-20 12:33:47 15.6 25 25.3
003A60E0 2019-04-20 11:58:39 15.6 25 25.3
003A60E0 2019-04-20 11:23:30 15.6 25 25.3
003A60E0 2019-04-20 10:48:20 15.6 25 25.3
003A60E0 2019-04-20 10:13:09 15.6 25 25.3
003A60E0 2019-04-20 09:37:58 15.6 25 25.2
003A60E0 2019-04-20 09:02:47 15.6 25 25.4
003A60E0 2019-04-20 08:27:38 15.8 25 25.3
003A60E0 2019-04-20 07:52:28 15.8 25 25.4
003A60E0 2019-04-20 07:17:19 15.9 25 25.4
003A60E0 2019-04-20 06:42:11 15.8 25 25.5
003A60E0 2019-04-20 06:07:01 15.8 25 25.4
003A60E0 2019-04-20 05:31:52 15.8 25 25.4
003A60E0 2019-04-20 04:56:42 15.8 25 25.3
003A60E0 2019-04-20 04:21:31 15.7 25 25.3
003A60E0 2019-04-20 03:46:21 15.8 25 25.3
003A60E0 2019-04-20 03:11:11 15.8 25 25.3
003A60E0 2019-04-20 02:36:02 15.8 25 25.4
003A60E0 2019-04-20 02:00:53 15.9 25 25.5
003A60E0 2019-04-20 01:25:43 16 25 25.6
003A60E0 2019-04-20 00:50:34 16 25 25.6
003A60E0 2019-04-20 00:15:24 16 25 25.6
003A60E0 2019-04-19 23:40:14 16 24 25.5
003A60E0 2019-04-19 23:05:06 16.1 24 25.4
003A60E0 2019-04-19 22:29:57 16.2 24 25.7
003A60E0 2019-04-19 21:54:47 16.3 24 25.6
003A60E0 2019-04-19 21:19:35 16.3 24 25.5
003A60E0 2019-04-19 20:44:25 16.3 24 25.4
003A60E0 2019-04-19 20:09:15 16.3 24 25.4
003A60E0 2019-04-19 19:34:04 16.4 24 25.3
003A60E0 2019-04-19 18:58:52 16.4 24 25.2
003A60E0 2019-04-19 18:23:40 16.5 24 25.3
003A60E0 2019-04-19 17:48:28 16.5 24 25.2
003A60E0 2019-04-19 17:13:15 16.5 24 25.1
003A60E0 2019-04-19 16:38:03 16.4 24 25.1
003A60E0 2019-04-19 16:02:52 16.3 24 25.2
003A60E0 2019-04-19 15:27:41 16.3 24 25.1
003A60E0 2019-04-19 14:52:31 16.3 24 25.2
003A60E0 2019-04-19 14:17:19 16.3 24 25.2
003A60E0 2019-04-19 13:42:09 16.3 24 25.2
003A60E0 2019-04-19 13:06:58 16.1 24 25.1
003A60E0 2019-04-19 12:31:48 16 24 25
003A60E0 2019-04-19 11:56:37 16 24 24.9
003A60E0 2019-04-19 11:21:26 16 24 24.9
003A60E0 2019-04-19 10:46:15 16 24 25
003A60E0 2019-04-19 10:11:04 16 24 24.8
003A60E0 2019-04-19 09:35:52 15.9 24 24.7
003A60E0 2019-04-19 09:00:38 15.9 24 24.7
003A60E0 2019-04-19 08:25:26 15.9 24 24.6
003A60E0 2019-04-19 07:50:13 15.9 24 24.8
003A60E0 2019-04-19 07:15:01 15.9 24 24.9
003A60E0 2019-04-19 06:39:49 16 24 24.9
003A60E0 2019-04-19 06:04:38 16 24 25.1
003A60E0 2019-04-19 05:29:28 16 24 25.4
003A60E0 2019-04-19 04:54:15 16 24 25.4
003A60E0 2019-04-19 04:19:04 16 23 25.4
003A60E0 2019-04-19 03:43:52 16 23 25.6
003A60E0 2019-04-19 03:08:41 16 24 25.6
003A60E0 2019-04-19 02:33:31 16 23 25.5
003A60E0 2019-04-19 01:58:20 16 23 25.5
003A60E0 2019-04-19 01:23:11 16.1 23 25.4
003A60E0 2019-04-19 00:48:01 16.3 23 25.6
003A60E0 2019-04-19 00:12:50 16.3 23 25.5
003A60E0 2019-04-18 23:37:39 16.5 23 25.5
003A60E0 2019-04-18 23:02:26 16.5 23 25.3
003A60E0 2019-04-18 22:27:15 16.5 23 25.2
003A60E0 2019-04-18 21:52:03 16.7 23 25.2
003A60E0 2019-04-18 21:16:51 16.7 23 25.2
003A60E0 2019-04-18 20:41:41 16.7 23 25.2
003A60E0 2019-04-18 20:06:30 16.7 23 25.3
003A60E0 2019-04-18 19:31:18 16.8 23 25.4
003A60E0 2019-04-18 18:56:08 16.9 23 25.5
003A60E0 2019-04-18 18:20:58 16.9 23 25.5
003A60E0 2019-04-18 17:45:47 16.9 23 25.5
003A60E0 2019-04-18 17:10:37 16.9 23 25.6
003A60E0 2019-04-18 16:35:24 16.8 23 25.6
003A60E0 2019-04-18 16:00:13 16.7 23 25.7
003A60E0 2019-04-18 15:25:02 16.7 23 25.6
003A60E0 2019-04-18 14:49:47 16.6 23 25.5
003A60E0 2019-04-18 14:14:33 16.5 23 25.5
003A60E0 2019-04-18 13:39:19 16.3 23 25.6
003A60E0 2019-04-18 13:04:05 16.3 23 25.3
003A60E0 2019-04-18 12:28:50 16.3 23 25.5
003A60E0 2019-04-18 11:53:35 16.3 22 25.6
003A60E0 2019-04-18 11:18:24 16.3 22 25.5
003A60E0 2019-04-18 10:43:11 16.3 22 25.6
003A60E0 2019-04-18 10:07:59 16.3 23 25.5
003A60E0 2019-04-18 09:32:44 16 22 25.7
003A60E0 2019-04-18 08:57:32 16 22 25.8
003A60E0 2019-04-18 08:22:20 16.3 22 25.9
003A60E0 2019-04-18 07:47:09 16.3 22 26.1
003A60E0 2019-04-18 07:11:58 16.3 22 26.1
003A60E0 2019-04-18 06:36:48 16.3 22 26.1
003A60E0 2019-04-18 06:01:38 16.3 22 26.1
003A60E0 2019-04-18 05:26:27 16.1 22 26
003A60E0 2019-04-18 04:51:16 16 22 25.9
003A60E0 2019-04-18 04:16:05 16 22 25.8
003A60E0 2019-04-18 03:40:53 16 22 25.6
003A60E0 2019-04-18 03:05:42 16 22 25.8
003A60E0 2019-04-18 02:30:31 16 22 25.5
003A60E0 2019-04-18 01:55:19 16.1 22 25.3
003A60E0 2019-04-18 01:20:09 16.3 22 25.2
003A60E0 2019-04-18 00:44:58 16.5 22 24.9
003A60E0 2019-04-18 00:09:49 16.5 22 24.8
003A60E0 2019-04-17 23:34:39 16.7 22 24.6
003A60E0 2019-04-17 22:59:30 16.7 22 24.4
003A60E0 2019-04-17 22:24:20 16.8 22 24.2
003A60E0 2019-04-17 21:49:10 16.9 22 23.9
003A60E0 2019-04-17 21:14:00 16.7 22 23.6
003A60E0 2019-04-17 20:38:50 16.6 22 23.4
003A60E0 2019-04-17 20:03:40 16.6 21 23.1
003A60E0 2019-04-17 19:28:30 16.5 21 22.9
003A60E0 2019-04-17 18:53:19 16.5 21 22.5
003A60E0 2019-04-17 18:18:09 16.5 21 22.1
003A60E0 2019-04-17 17:42:57 16.5 21 21.9
003A60E0 2019-04-17 17:07:46 16.5 21 21.3
003A60E0 2019-04-17 16:32:37 16.5 21 20.9
003A60E0 2019-04-17 15:57:27 16.4 21 20.7
003A60E0 2019-04-17 15:22:16 16.3 21 20
003A60E0 2019-04-17 14:47:05 16.5 21 19.8
003A60E0 2019-04-17 14:11:54 16.5 21 19.5
003A60E0 2019-04-17 13:01:33 16.9 21 19.4
003A60E0 2019-04-17 12:26:23 16.9 21 19.4
003A60E0 2019-04-17 11:51:13 16.7 21 17.2
003A60E0 2019-04-17 11:16:04 16.7 21 17.3
003A60E0 2019-04-17 10:40:54 16.5 21 17.3
003A60E0 2019-04-17 10:05:43 16.5 21 17.3
003A60E0 2019-04-17 09:30:32 16.5 21 17.4
003A60E0 2019-04-17 08:55:22 16.5 21 17.3
003A60E0 2019-04-17 08:20:12 16.7 21 17.3
003A60E0 2019-04-17 07:45:01 16.9 21 17.3
003A60E0 2019-04-17 07:09:50 17.1 21 18.1
003A60E0 2019-04-17 06:34:39 17.2 21 18.4
003A60E0 2019-04-17 05:59:27 17.3 21 18.4
003A60E0 2019-04-17 05:24:16 17.3 21 18.5
003A60E0 2019-04-17 04:49:03 17.3 21 18.6
003A60E0 2019-04-17 04:13:52 17.4 21 18.5
003A60E0 2019-04-17 03:38:42 17.5 20 18.3
003A60E0 2019-04-17 03:03:33 17.5 20 18.1
003A60E0 2019-04-17 02:28:22 17.8 20 17.9
003A60E0 2019-04-17 01:53:13 17.8 20 18
003A60E0 2019-04-17 01:18:03 17.8 20 17.6
003A60E0 2019-04-17 00:42:52 17.7 20 17.3
003A60E0 2019-04-17 00:07:39 17.6 20 17.3
003A60E0 2019-04-16 23:32:26 17.5 20 17.3
003A60E0 2019-04-16 22:57:14 17.3 20 17.5
003A60E0 2019-04-16 22:22:01 17.6 20 17.5
003A60E0 2019-04-16 21:46:50 18 20 17.4
003A60E0 2019-04-16 21:11:36 18.4 20 17.3
003A60E0 2019-04-16 20:36:23 18.6 20 17.2
003A60E0 2019-04-16 20:01:12 18.6 20 17.2
003A60E0 2019-04-16 19:26:00 18.6 20 17.2
003A60E0 2019-04-16 18:50:48 18.6 20 17
003A60E0 2019-04-16 18:15:37 18.6 20 17
003A60E0 2019-04-16 17:40:24 18.8 20 17.3
003A60E0 2019-04-16 17:05:13 18.8 20 17.5
003A60E0 2019-04-16 15:54:46 19.2 20 16.4
003A60E0 2019-04-16 15:19:33 19.5 20 15.9
003A60E0 2019-04-16 14:44:21 20 19 16.1
003A60E0 2019-04-16 13:34:01 21.2 20 16.2
003A60E0 2019-04-16 12:58:47 21.2 20 15.8
003A60E0 2019-04-16 12:23:36 21.2 20 16
003A60E0 2019-04-16 11:48:25 21.2 20 16.1
003A60E0 2019-04-16 11:13:13 21.2 20 16.2
003A60E0 2019-04-16 10:38:01 21.2 20 16.2
003A60E0 2019-04-16 10:02:49 21.2 20 16.3
003A60E0 2019-04-16 09:27:38 21.2 20 16.1
003A60E0 2019-04-16 08:52:25 21.1 20 16.7
003A60E0 2019-04-16 08:17:15 21.1 20 16.9
003A60E0 2019-04-16 07:42:05 21.1 20 16.7
003A60E0 2019-04-16 07:06:51 21.1 20 16.4
003A60E0 2019-04-16 06:31:38 21.1 20 16.3
003A60E0 2019-04-16 05:56:22 21.2 19 16.3
003A60E0 2019-04-16 05:21:12 21.2 19 15.9
003A60E0 2019-04-16 04:45:56 21.2 19 16.4
003A60E0 2019-04-16 04:10:43 21.2 19 16.2
003A60E0 2019-04-16 03:35:31 21.2 19 16.3
003A60E0 2019-04-16 03:00:19 21.2 19 16.4
003A60E0 2019-04-16 02:25:09 21.2 19 16.7
003A60E0 2019-04-16 01:49:54 21.2 19 19
003A60E0 2019-04-16 01:14:41 21.2 19 19.5
003A60E0 2019-04-16 00:39:29 21.2 19 20
003A60E0 2019-04-16 00:04:16 21.2 19 20.4
003A60E0 2019-04-15 23:29:01 21.2 19 20.4
003A60E0 2019-04-15 22:53:49 21.2 19 20.7
003A60E0 2019-04-15 22:18:35 21.2 19 21.3
003A60E0 2019-04-15 21:43:22 21.3 19 21.8
003A60E0 2019-04-15 21:08:11 21.3 19 22
003A60E0 2019-04-15 20:32:59 21.2 19 22.1
003A60E0 2019-04-15 19:57:46 21.2 19 23.1
003A60E0 2019-04-15 19:22:34 21.2 19 23.1
003A60E0 2019-04-15 18:47:22 21.2 19 23.4
003A60E0 2019-04-15 18:12:07 21.2 19 23.6
003A60E0 2019-04-15 17:36:56 21.4 19 23.8
003A60E0 2019-04-15 17:01:40 21.4 19 24.2
003A60E0 2019-04-15 16:26:27 21.4 19 24.8
003A60E0 2019-04-15 15:51:14 21.5 19 25.3
003A60E0 2019-04-15 15:16:02 21.6 19 25.7
003A60E0 2019-04-15 14:40:53 21.6 19 25.9
003A60E0 2019-04-15 14:05:37 21.8 19 26
003A60E0 2019-04-15 13:30:25 21.9 18 26.2
003A60E0 2019-04-15 12:55:14 22.1 18 26.3
003A60E0 2019-04-15 12:20:01 22.5 18 26.6
003A60E0 2019-04-15 11:44:49 22.4 16 26.7
003A60E0 2019-04-15 11:09:36 22.3 16 26.5
003A60E0 2019-04-15 10:34:24 22.2 16 26.6
003A60E0 2019-04-15 09:59:11 22.2 17 26.7
003A60E0 2019-04-15 09:23:56 22.2 17 26.8
003A60E0 2019-04-15 08:48:43 22.1 16 26.9
003A60E0 2019-04-15 08:13:31 22 16 27
003A60E0 2019-04-15 07:38:19 21.9 17 26.9
003A60E0 2019-04-15 07:03:08 21.8 17 26.9
003A60E0 2019-04-15 06:27:55 21.8 17 27.1
003A60E0 2019-04-15 05:52:44 21.8 17 27.2
003A60E0 2019-04-15 05:17:33 21.8 17 27
003A60E0 2019-04-15 04:42:21 21.8 17 27.2
003A60E0 2019-04-15 04:07:10 21.8 17 27.2
003A60E0 2019-04-15 03:31:59 21.8 17 27.2
003A60E0 2019-04-15 02:56:48 21.8 17 27.4
003A60E0 2019-04-15 02:21:36 21.8 17 27.3
003A60E0 2019-04-15 01:46:24 21.8 17 27.2
003A60E0 2019-04-15 01:11:13 21.8 17 27.2
003A60E0 2019-04-15 00:36:01 21.8 17 26.9
003A60E0 2019-04-15 00:00:48 21.8 17 26.9
003A60E0 2019-04-14 23:25:37 21.8 17 27
003A60E0 2019-04-14 22:50:24 21.8 17 27.1
003A60E0 2019-04-14 22:15:10 21.9 18 27.1
003A60E0 2019-04-14 21:39:57 22 18 27
003A60E0 2019-04-14 21:04:42 22 18 26.9
003A60E0 2019-04-14 20:29:29 22 18 26.9
003A60E0 2019-04-14 19:54:16 22 18 26.8
003A60E0 2019-04-14 19:19:04 22 18 26.9
003A60E0 2019-04-14 18:43:51 22 18 27
003A60E0 2019-04-14 18:08:39 22 18 26.9
003A60E0 2019-04-14 17:33:28 22 18 27
003A60E0 2019-04-14 16:58:17 21.9 18 27
003A60E0 2019-04-14 16:23:06 22 18 26.9
003A60E0 2019-04-14 15:47:53 21.9 18 26.7
003A60E0 2019-04-14 15:12:39 21.9 18 26.7
003A60E0 2019-04-14 14:37:28 22 18 26.7
003A60E0 2019-04-14 14:02:17 22 18 26.6
003A60E0 2019-04-14 13:27:04 22 18 26.5
003A60E0 2019-04-14 12:51:52 22 18 26.4
003A60E0 2019-04-14 12:16:39 22 18 26.2
003A60E0 2019-04-14 11:41:26 21.9 18 26.3
003A60E0 2019-04-14 11:06:15 22 18 26.2
003A60E0 2019-04-14 10:31:03 22 18 26
003A60E0 2019-04-14 09:55:51 21.9 18 26.1
003A60E0 2019-04-14 09:20:38 21.9 18 26.2
003A60E0 2019-04-14 08:45:23 21.8 18 26.2
003A60E0 2019-04-14 08:10:08 21.9 18 26
003A60E0 2019-04-14 07:34:54 21.9 18 26.3
003A60E0 2019-04-14 06:59:40 21.9 17 26.4
003A60E0 2019-04-14 06:24:27 21.8 17 26.4
003A60E0 2019-04-14 05:49:13 21.9 17 26.3
003A60E0 2019-04-14 05:13:59 21.9 17 26.3
003A60E0 2019-04-14 04:38:44 21.8 17 26.1
003A60E0 2019-04-14 04:03:28 21.9 17 25.9
003A60E0 2019-04-14 03:28:12 22 17 26.2
003A60E0 2019-04-14 02:52:58 22 18 26.2
003A60E0 2019-04-14 02:17:45 22 18 26.2
003A60E0 2019-04-14 01:42:32 22 18 26.1
003A60E0 2019-04-14 01:07:20 22 18 26.2
003A60E0 2019-04-14 00:32:05 22 18 26.2
003A60E0 2019-04-13 23:56:50 22 17 26.3
003A60E0 2019-04-13 23:21:37 22 17 26.2
003A60E0 2019-04-13 22:46:24 22 17 26.5
003A60E0 2019-04-13 22:11:11 22 17 26.7
003A60E0 2019-04-13 21:35:57 22.1 17 26.6
003A60E0 2019-04-13 21:00:45 22.1 17 26.6
003A60E0 2019-04-13 20:25:31 22.2 17 26.6
003A60E0 2019-04-13 19:50:19 22.2 17 26.5
003A60E0 2019-04-13 19:15:06 22.2 17 26.4
003A60E0 2019-04-13 18:39:52 22.2 17 26.5
003A60E0 2019-04-13 18:04:40 22.2 17 26.3
003A60E0 2019-04-13 17:29:26 22.2 17 26.2
003A60E0 2019-04-13 16:54:12 22.2 17 25.9
003A60E0 2019-04-13 16:19:00 22.3 17 25.8
003A60E0 2019-04-13 15:43:47 22.3 17 25.9
003A60E0 2019-04-13 15:08:34 22.2 17 25.9
003A60E0 2019-04-13 14:33:20 22.4 17 25.9
003A60E0 2019-04-13 13:58:06 22.4 17 25.9
003A60E0 2019-04-13 13:22:50 22.5 17 25.9
003A60E0 2019-04-13 12:47:36 22.5 17 25.5
003A60E0 2019-04-13 12:12:23 22.5 17 25.4
003A60E0 2019-04-13 11:37:10 22.5 18 25.5
003A60E0 2019-04-13 11:01:56 22.4 17 25.5
003A60E0 2019-04-13 10:26:44 22.5 17 25.5
003A60E0 2019-04-13 09:51:30 22.4 17 25.4
003A60E0 2019-04-13 09:16:17 22.5 17 25.4
003A60E0 2019-04-13 08:41:03 22.4 17 25.5
003A60E0 2019-04-13 08:05:50 22.3 17 25.3
003A60E0 2019-04-13 07:30:36 22.3 17 25
003A60E0 2019-04-13 06:55:22 22.4 17 25
003A60E0 2019-04-13 06:20:08 22.4 17 25
003A60E0 2019-04-13 05:44:54 22.4 17 25.2
003A60E0 2019-04-13 05:09:41 22.4 17 25.6
003A60E0 2019-04-13 04:34:27 22.5 17 25.9
003A60E0 2019-04-13 03:59:14 22.5 17 25.7
003A60E0 2019-04-13 03:24:01 22.5 17 25.6
003A60E0 2019-04-13 02:48:47 22.5 17 25.7
003A60E0 2019-04-13 02:13:33 22.5 17 25.7
003A60E0 2019-04-13 01:38:19 22.5 17 25.8
003A60E0 2019-04-13 01:03:06 22.6 18 25.8
003A60E0 2019-04-13 00:27:53 22.6 18 25.9
003A60E0 2019-04-12 23:52:40 22.7 18 25.8
003A60E0 2019-04-12 23:17:27 22.7 18 26
003A60E0 2019-04-12 22:42:16 22.7 18 26
003A60E0 2019-04-12 22:07:02 22.8 18 26.2
003A60E0 2019-04-12 21:31:48 22.9 18 26.2
003A60E0 2019-04-12 20:56:33 22.9 19 26.3
003A60E0 2019-04-12 20:21:17 22.9 18 26.3
003A60E0 2019-04-12 19:46:01 22.9 18 26.3
003A60E0 2019-04-12 19:10:45 22.9 18 26.4
003A60E0 2019-04-12 18:35:31 23 17 26.6
003A60E0 2019-04-12 18:00:17 23.1 17 26.7
003A60E0 2019-04-12 17:25:03 23.1 17 26.5
003A60E0 2019-04-12 16:49:47 23.1 17 26.9
003A60E0 2019-04-12 16:14:33 23.1 18 27.2
003A60E0 2019-04-12 15:39:17 22.9 18 27.5
003A60E0 2019-04-12 15:04:01 22.8 19 27.2
003A60E0 2019-04-12 14:28:47 22.5 20 25.6
003A60E0 2019-04-12 13:53:31 22 20 15.8
003A60E0 2019-04-12 13:18:16 21.4 24 8.4